TimeEST,TemperatureF,Dew PointF,Humidity,Sea Level PressureIn,VisibilityMPH,Wind Direction,Wind SpeedMPH,Gust SpeedMPH,PrecipitationIn,Events,Conditions,WindDirDegrees,DateUTC
12:15 AM,55.4,55.4,100,30.17,2.0,North,5.8,-,N/A,,Overcast,10,2012-11-15 05:15:00
12:35 AM,55.4,55.4,100,30.17,1.2,North,5.8,-,N/A,,Overcast,360,2012-11-15 05:35:00
12:55 AM,55.4,55.4,100,30.16,1.0,North,4.6,-,N/A,,Overcast,360,2012-11-15 05:55:00
1:15 AM,55.4,55.4,100,30.15,0.8,North,4.6,-,N/A,,Overcast,350,2012-11-15 06:15:00
1:35 AM,55.4,55.4,100,30.15,0.5,North,4.6,-,N/A,Fog,Fog,350,2012-11-15 06:35:00
1:55 AM,55.4,55.4,100,30.15,0.5,NNW,8.1,-,N/A,Fog,Fog,340,2012-11-15 06:55:00
2:15 AM,55.4,55.4,100,30.15,0.5,NW,6.9,-,N/A,Fog,Fog,320,2012-11-15 07:15:00
2:35 AM,55.4,55.4,100,30.15,0.5,NNW,6.9,-,N/A,Fog,Fog,330,2012-11-15 07:35:00
2:55 AM,53.6,53.6,100,30.15,0.5,NNW,8.1,-,N/A,Fog,Fog,330,2012-11-15 07:55:00
3:15 AM,53.6,53.6,100,30.15,0.8,NW,5.8,-,N/A,,Overcast,320,2012-11-15 08:15:00
3:35 AM,53.6,53.6,100,30.15,0.8,NNW,8.1,-,N/A,,Overcast,330,2012-11-15 08:35:00
3:55 AM,53.6,53.6,100,30.14,0.8,NNW,8.1,-,N/A,,Overcast,340,2012-11-15 08:55:00
4:15 AM,53.6,53.6,100,30.14,0.8,NNW,8.1,-,N/A,,Overcast,330,2012-11-15 09:15:00
4:35 AM,53.6,53.6,100,30.15,1.2,NNW,9.2,-,N/A,,Overcast,330,2012-11-15 09:35:00
4:55 AM,53.6,53.6,100,30.15,1.2,NW,9.2,-,N/A,,Overcast,320,2012-11-15 09:55:00
5:15 AM,53.6,53.6,100,30.15,1.2,NNW,6.9,-,N/A,,Overcast,330,2012-11-15 10:15:00
6:50 AM,51.8,51.8,100,30.17,1.5,North,9.2,-,N/A,,Overcast,350,2012-11-15 11:50:00
7:50 AM,50.0,50.0,100,30.19,-9999.0,North,6.9,-,N/A,,Overcast,350,2012-11-15 12:50:00
8:50 AM,50.0,50.0,100,30.21,-9999.0,North,13.8,-,N/A,,Overcast,10,2012-11-15 13:50:00
9:50 AM,50.0,50.0,100,30.23,-9999.0,North,6.9,-,N/A,,Overcast,350,2012-11-15 14:50:00
10:50 AM,50.0,50.0,100,30.22,-9999.0,North,8.1,-,N/A,,Overcast,350,2012-11-15 15:50:00
12:50 PM,53.6,50.0,88,30.18,-9999.0,NNE,5.8,-,N/A,,Overcast,20,2012-11-15 17:50:00
1:50 PM,55.4,50.0,82,30.16,-9999.0,NNW,4.6,-,N/A,,Overcast,330,2012-11-15 18:50:00
2:50 PM,57.2,53.6,88,30.15,-9999.0,North,4.6,-,N/A,,Overcast,360,2012-11-15 19:50:00
3:50 PM,57.2,53.6,88,30.15,-9999.0,Calm,Calm,-,N/A,,Overcast,0,2012-11-15 20:50:00
5:50 PM,57.2,53.6,88,30.17,-9999.0,ENE,5.8,-,N/A,,Overcast,60,2012-11-15 22:50:00
6:50 PM,57.2,53.6,88,30.18,-9999.0,NNE,5.8,-,N/A,,Overcast,30,2012-11-15 23:50:00
7:50 PM,55.4,53.6,94,30.19,-9999.0,North,5.8,-,N/A,,Overcast,350,2012-11-16 00:50:00
8:55 PM,53.6,51.8,94,30.20,8.0,North,6.9,-,N/A,,Overcast,360,2012-11-16 01:55:00
9:15 PM,53.6,51.8,94,30.21,9.0,NNW,8.1,-,N/A,,Overcast,340,2012-11-16 02:15:00
9:35 PM,53.6,51.8,94,30.21,7.0,North,6.9,-,N/A,,Overcast,350,2012-11-16 02:35:00
9:55 PM,53.6,51.8,94,30.21,6.0,North,6.9,-,N/A,,Overcast,350,2012-11-16 02:55:00
10:15 PM,53.6,51.8,94,30.21,4.0,North,5.8,-,N/A,,Overcast,360,2012-11-16 03:15:00
10:35 PM,53.6,51.8,94,30.21,5.0,North,4.6,-,N/A,,Overcast,350,2012-11-16 03:35:00
10:55 PM,53.6,51.8,94,30.21,7.0,North,6.9,-,N/A,,Overcast,350,2012-11-16 03:55:00
11:15 PM,53.6,51.8,94,30.21,5.0,North,8.1,-,N/A,,Overcast,360,2012-11-16 04:15:00
11:35 PM,51.8,51.8,100,30.21,7.0,North,5.8,-,N/A,,Overcast,360,2012-11-16 04:35:00
11:55 PM,51.8,50.0,94,30.21,5.0,North,4.6,-,N/A,,Overcast,10,2012-11-16 04:55:00